Tracking 18624 objects as of 28-April-2017
HD Live streaming from Space Station
objects crossing your sky now

SL-12 R/B(AUX MOTOR)

Track SL-12 R/B(AUX MOTOR) now!


NORAD ID: 25053
Int'l Code: 1997-070E
Perigee: -6,371.0 km
Apogee: -6,371.0 km
Inclination: 45.7 °
Period: 0.0 minutes
Semi major axis: 0 km
RCS: 0.8237 m2 (medium)
Launch date: November 12, 1997
Source: Commonwealth of Independent States (former USSR) (CIS)
Launch site: TYURATAM MISSILE AND SPACE COMPLEX (TTMTR)

Note: This is a ROCKET BODY
Your satellite tracking list
Your tracking list is empty





NASA's NSSDC Master Catalog

Two Line Element Set (TLE):
1 25053U 97070E   17117.38064955 +.00000035 +00000-0 -29915-2 0  9992
2 25053 045.6716 151.9158 6800430 147.8449 282.8083 02.41726295171181
Source of the keplerian elements: AFSPC